Time,TemperatureF,DewpointF,PressureIn,WindDirection,WindDirectionDegrees,WindSpeedMPH,WindSpeedGustMPH,Humidity,HourlyPrecipIn,Conditions,Clouds,dailyrainin,SoftwareType,DateUTC
2013-05-16 00:03:00,62.3,60.8,29.79,ESE,118,5.0,7.0,95,0.71,,---,0.05,VWS V14.01,2013-05-16 05:03:00,
2013-05-16 00:08:00,62.3,60.8,29.79,SE,125,6.0,8.0,95,0.75,,---,0.09,VWS V14.01,2013-05-16 05:08:00,
2013-05-16 00:13:00,62.4,61.0,29.80,ESE,108,9.0,11.0,95,0.79,,---,0.13,VWS V14.01,2013-05-16 05:13:00,
2013-05-16 00:19:00,62.8,61.3,29.82,SSW,210,6.0,13.0,95,0.82,,---,0.16,VWS V14.01,2013-05-16 05:19:00,
2013-05-16 00:24:00,62.9,61.5,29.82,SE,140,7.0,10.0,95,0.82,,---,0.16,VWS V14.01,2013-05-16 05:24:00,
2013-05-16 00:29:00,62.8,61.3,29.79,ESE,115,7.0,11.0,95,0.83,,---,0.17,VWS V14.01,2013-05-16 05:29:00,
2013-05-16 00:34:00,63.0,61.8,29.79,ESE,120,11.0,11.0,96,0.57,,---,0.17,VWS V14.01,2013-05-16 05:34:00,
2013-05-16 00:39:00,63.3,62.1,29.80,ESE,103,14.0,14.0,96,0.57,,---,0.17,VWS V14.01,2013-05-16 05:39:00,
2013-05-16 00:44:00,63.3,61.8,29.81,ESE,105,10.0,19.0,95,0.57,,---,0.17,VWS V14.01,2013-05-16 05:44:00,
2013-05-16 00:49:00,62.9,61.5,29.80,SE,132,11.0,15.0,95,0.57,,---,0.17,VWS V14.01,2013-05-16 05:49:00,
2013-05-16 00:54:00,62.6,61.2,29.79,ESE,108,12.0,13.0,95,0.57,,---,0.17,VWS V14.01,2013-05-16 05:54:00,
2013-05-16 00:59:00,62.4,61.0,29.79,SE,130,6.0,11.0,95,0.17,,---,0.17,VWS V14.01,2013-05-16 05:59:00,
2013-05-16 01:04:00,62.3,60.8,29.78,ESE,111,4.0,10.0,95,0.17,,---,0.17,VWS V14.01,2013-05-16 06:04:00,
2013-05-16 01:09:00,62.2,60.8,29.77,ENE,71,5.0,8.0,95,0.17,,---,0.17,VWS V14.01,2013-05-16 06:09:00,
2013-05-16 01:14:00,62.1,60.7,29.77,NE,45,7.0,7.0,95,0.17,,---,0.17,VWS V14.01,2013-05-16 06:14:00,
2013-05-16 01:19:00,62.2,60.8,29.77,East,85,0.0,8.0,95,0.17,,---,0.17,VWS V14.01,2013-05-16 06:19:00,
2013-05-16 01:24:00,62.2,60.8,29.78,ENE,74,0.0,1.0,95,0.17,,---,0.17,VWS V14.01,2013-05-16 06:24:00,
2013-05-16 01:29:00,62.2,60.8,29.78,ENE,76,0.0,3.0,95,0.00,,---,0.17,VWS V14.01,2013-05-16 06:29:00,
2013-05-16 01:35:00,62.2,60.8,29.78,ENE,70,0.0,6.0,95,0.00,,---,0.17,VWS V14.01,2013-05-16 06:35:00,
2013-05-16 01:40:00,62.3,60.8,29.78,ENE,67,0.0,3.0,95,0.00,,---,0.17,VWS V14.01,2013-05-16 06:40:00,
2013-05-16 01:45:00,62.3,60.8,29.78,ENE,67,0.0,0.0,95,0.00,,---,0.17,VWS V14.01,2013-05-16 06:45:00,
2013-05-16 01:50:00,62.3,60.8,29.78,East,94,0.0,5.0,95,0.00,,---,0.17,VWS V14.01,2013-05-16 06:50:00,
2013-05-16 01:55:00,62.4,61.0,29.78,ESE,109,2.0,5.0,95,0.00,,---,0.17,VWS V14.01,2013-05-16 06:55:00,
2013-05-16 02:00:00,62.4,61.0,29.76,ESE,109,1.0,4.0,95,0.00,,---,0.17,VWS V14.01,2013-05-16 07:00:00,
2013-05-16 02:05:00,62.4,61.0,29.76,East,90,6.0,8.0,95,0.00,,---,0.17,VWS V14.01,2013-05-16 07:05:00,
2013-05-16 02:10:00,62.5,61.0,29.76,ESE,105,3.0,6.0,95,0.00,,---,0.17,VWS V14.01,2013-05-16 07:10:00,
2013-05-16 02:15:00,62.6,61.2,29.76,ESE,103,4.0,9.0,95,0.00,,---,0.17,VWS V14.01,2013-05-16 07:15:00,
2013-05-16 02:20:00,62.7,61.2,29.76,ESE,109,2.0,9.0,95,0.00,,---,0.17,VWS V14.01,2013-05-16 07:20:00,
2013-05-16 02:25:00,62.8,61.3,29.76,ESE,113,5.0,7.0,95,0.00,,---,0.17,VWS V14.01,2013-05-16 07:25:00,
2013-05-16 02:30:00,62.8,61.3,29.75,East,93,8.0,9.0,95,0.00,,---,0.17,VWS V14.01,2013-05-16 07:30:00,
2013-05-16 02:35:00,62.9,61.5,29.75,ESE,111,9.0,14.0,95,0.00,,---,0.17,VWS V14.01,2013-05-16 07:35:00,
2013-05-16 02:40:00,63.1,61.3,29.75,SE,137,9.0,13.0,94,0.00,,---,0.17,VWS V14.01,2013-05-16 07:40:00,
2013-05-16 02:45:00,63.1,61.3,29.75,SSE,154,8.0,9.0,94,0.00,,---,0.17,VWS V14.01,2013-05-16 07:45:00,
2013-05-16 02:51:00,62.9,61.2,29.76,South,180,0.0,4.0,94,0.00,,---,0.17,VWS V14.01,2013-05-16 07:51:00,
2013-05-16 02:56:00,62.7,61.0,29.76,SSE,153,0.0,3.0,94,0.00,,---,0.17,VWS V14.01,2013-05-16 07:56:00,
2013-05-16 03:01:00,62.7,61.0,29.76,SSE,163,4.0,4.0,94,0.00,,---,0.17,VWS V14.01,2013-05-16 08:01:00,
2013-05-16 03:06:00,62.6,60.8,29.77,SSE,159,0.0,4.0,94,0.00,,---,0.17,VWS V14.01,2013-05-16 08:06:00,
2013-05-16 03:11:00,62.4,60.7,29.76,SE,140,2.0,6.0,94,0.00,,---,0.17,VWS V14.01,2013-05-16 08:11:00,
2013-05-16 03:16:00,62.3,60.8,29.77,South,172,3.0,3.0,95,0.00,,---,0.17,VWS V14.01,2013-05-16 08:16:00,
2013-05-16 03:21:00,62.3,60.8,29.77,South,185,5.0,9.0,95,0.00,,---,0.17,VWS V14.01,2013-05-16 08:21:00,
2013-05-16 03:26:00,62.2,60.8,29.77,SSW,213,7.0,7.0,95,0.00,,---,0.17,VWS V14.01,2013-05-16 08:26:00,
2013-05-16 05:30:00,62.1,60.7,29.76,SSE,158,1.0,0.0,95,0.00,,---,0.17,VWS V14.01,2013-05-16 10:30:00,
2013-05-16 05:59:00,62.1,60.7,29.78,SSE,158,1.0,1.0,95,0.00,,---,0.17,VWS V14.01,2013-05-16 10:59:00,
2013-05-16 06:04:00,62.1,60.7,29.78,SSE,158,1.0,1.0,95,0.00,,---,0.17,VWS V14.01,2013-05-16 11:04:00,
2013-05-16 06:09:00,62.1,60.7,29.78,SSE,158,1.0,1.0,95,0.00,,---,0.17,VWS V14.01,2013-05-16 11:09:00,
2013-05-16 06:14:00,62.1,60.7,29.78,SSE,158,1.0,1.0,95,0.00,,---,0.17,VWS V14.01,2013-05-16 11:14:00,
2013-05-16 06:19:00,62.1,60.7,29.77,SSE,158,1.0,1.0,95,0.00,,---,0.17,VWS V14.01,2013-05-16 11:19:00,
2013-05-16 06:24:00,62.1,60.7,29.77,SSE,158,1.0,1.0,95,0.00,,---,0.17,VWS V14.01,2013-05-16 11:24:00,
2013-05-16 06:29:00,62.1,60.7,29.76,SSE,158,1.0,1.0,95,0.00,,---,0.17,VWS V14.01,2013-05-16 11:29:00,
2013-05-16 06:34:00,62.1,60.7,29.76,SSE,158,1.0,1.0,95,0.00,,---,0.17,VWS V14.01,2013-05-16 11:34:00,
2013-05-16 06:39:00,62.1,60.7,29.76,SSE,158,1.0,1.0,95,0.00,,---,0.17,VWS V14.01,2013-05-16 11:39:00,
2013-05-16 06:45:00,0.0,0.0,29.76,North,0,0.0,0.0,0,0.00,,---,0.17,VWS V14.01,2013-05-16 11:45:00,
2013-05-16 06:50:00,0.0,0.0,29.76,North,0,0.0,0.0,0,0.00,,---,0.17,VWS V14.01,2013-05-16 11:50:00,
2013-05-16 06:55:00,0.0,0.0,29.76,North,0,0.0,0.0,0,0.00,,---,0.17,VWS V14.01,2013-05-16 11:55:00,
2013-05-16 07:00:00,0.0,0.0,29.77,North,0,0.0,0.0,0,0.00,,---,0.17,VWS V14.01,2013-05-16 12:00:00,
2013-05-16 07:05:00,0.0,0.0,29.77,North,0,0.0,0.0,0,0.00,,---,0.17,VWS V14.01,2013-05-16 12:05:00,
2013-05-16 07:10:00,0.0,0.0,29.77,North,0,0.0,0.0,0,0.00,,---,0.17,VWS V14.01,2013-05-16 12:10:00,
2013-05-16 07:15:00,0.0,0.0,29.78,North,0,0.0,0.0,0,0.00,,---,0.17,VWS V14.01,2013-05-16 12:15:00,
2013-05-16 07:20:00,0.0,0.0,29.78,North,0,0.0,0.0,0,0.00,,---,0.17,VWS V14.01,2013-05-16 12:20:00,
2013-05-16 07:25:00,0.0,0.0,29.78,North,0,0.0,0.0,0,0.00,,---,0.17,VWS V14.01,2013-05-16 12:25:00,
2013-05-16 07:30:00,0.0,0.0,29.79,North,0,0.0,0.0,0,0.00,,---,0.17,VWS V14.01,2013-05-16 12:30:00,
2013-05-16 07:35:00,0.0,0.0,29.79,North,0,0.0,0.0,0,0.00,,---,0.17,VWS V14.01,2013-05-16 12:35:00,
2013-05-16 07:40:00,0.0,0.0,29.79,North,0,0.0,0.0,0,0.00,,---,0.17,VWS V14.01,2013-05-16 12:40:00,
2013-05-16 07:45:00,0.0,0.0,29.79,North,0,0.0,0.0,0,0.00,,---,0.17,VWS V14.01,2013-05-16 12:45:00,
2013-05-16 07:50:00,0.0,0.0,29.79,North,0,0.0,0.0,0,0.00,,---,0.17,VWS V14.01,2013-05-16 12:50:00,
2013-05-16 07:56:00,64.1,62.0,29.79,SSE,157,6.0,10.0,93,0.00,,---,0.17,VWS V14.01,2013-05-16 12:56:00,
2013-05-16 08:01:00,64.2,62.1,29.79,SE,140,0.0,8.0,93,0.00,,---,0.17,VWS V14.01,2013-05-16 13:01:00,
2013-05-16 08:06:00,64.4,62.3,29.78,South,177,0.0,4.0,93,0.00,,---,0.17,VWS V14.01,2013-05-16 13:06:00,
2013-05-16 08:11:00,64.7,62.9,29.78,South,186,0.0,5.0,94,0.01,,---,0.18,VWS V14.01,2013-05-16 13:11:00,
2013-05-16 08:16:00,65.0,62.9,29.79,South,170,4.0,8.0,93,0.01,,---,0.18,VWS V14.01,2013-05-16 13:16:00,
2013-05-16 08:21:00,65.0,62.6,29.78,ESE,120,7.0,9.0,92,0.01,,---,0.18,VWS V14.01,2013-05-16 13:21:00,
2013-05-16 08:26:00,65.1,62.7,29.78,SE,144,6.0,7.0,92,0.01,,---,0.18,VWS V14.01,2013-05-16 13:26:00,
2013-05-16 08:31:00,65.2,62.8,29.79,South,189,4.0,9.0,92,0.01,,---,0.18,VWS V14.01,2013-05-16 13:31:00,
2013-05-16 08:36:00,65.2,62.8,29.78,SE,138,4.0,6.0,92,0.01,,---,0.18,VWS V14.01,2013-05-16 13:36:00,
2013-05-16 08:41:00,65.3,62.9,29.78,SE,138,0.0,9.0,92,0.01,,---,0.18,VWS V14.01,2013-05-16 13:41:00,
2013-05-16 08:46:00,65.3,62.6,29.78,SE,136,5.0,10.0,91,0.01,,---,0.18,VWS V14.01,2013-05-16 13:46:00,
2013-05-16 08:51:00,65.4,62.7,29.78,South,178,1.0,9.0,91,0.01,,---,0.18,VWS V14.01,2013-05-16 13:51:00,
2013-05-16 08:56:00,65.4,63.0,29.78,SSE,159,0.0,7.0,92,0.01,,---,0.18,VWS V14.01,2013-05-16 13:56:00,
2013-05-16 09:02:00,65.4,63.0,29.79,SSW,194,4.0,5.0,92,0.01,,---,0.18,VWS V14.01,2013-05-16 14:02:00,
2013-05-16 09:07:00,65.5,62.8,29.79,SSW,202,1.0,9.0,91,0.01,,---,0.18,VWS V14.01,2013-05-16 14:07:00,
2013-05-16 09:12:00,65.7,63.0,29.78,SSW,204,0.0,4.0,91,0.01,,---,0.18,VWS V14.01,2013-05-16 14:12:00,
2013-05-16 09:17:00,65.8,63.1,29.78,SSE,155,5.0,7.0,91,0.01,,---,0.18,VWS V14.01,2013-05-16 14:17:00,
2013-05-16 09:22:00,65.9,63.2,29.78,South,180,1.0,6.0,91,0.01,,---,0.18,VWS V14.01,2013-05-16 14:22:00,
2013-05-16 09:27:00,66.0,63.3,29.78,South,184,3.0,6.0,91,0.01,,---,0.18,VWS V14.01,2013-05-16 14:27:00,
2013-05-16 09:32:00,66.1,63.4,29.78,South,169,1.0,7.0,91,0.00,,---,0.18,VWS V14.01,2013-05-16 14:32:00,
2013-05-16 09:37:00,66.2,63.5,29.78,South,186,0.0,3.0,91,0.00,,---,0.18,VWS V14.01,2013-05-16 14:37:00,
2013-05-16 09:42:00,66.3,63.6,29.79,South,176,0.0,5.0,91,0.00,,---,0.18,VWS V14.01,2013-05-16 14:42:00,
2013-05-16 09:47:00,66.4,63.7,29.79,SSW,196,0.0,7.0,91,0.00,,---,0.18,VWS V14.01,2013-05-16 14:47:00,
2013-05-16 09:52:00,66.5,63.5,29.79,South,171,0.0,7.0,90,0.00,,---,0.18,VWS V14.01,2013-05-16 14:52:00,
2013-05-16 09:57:00,66.7,64.0,29.79,SSW,207,1.0,3.0,91,0.00,,---,0.18,VWS V14.01,2013-05-16 14:57:00,
2013-05-16 10:02:00,66.8,63.8,29.80,SSW,201,1.0,5.0,90,0.00,,---,0.18,VWS V14.01,2013-05-16 15:02:00,
2013-05-16 10:08:00,67.0,64.3,29.80,SSE,149,2.0,4.0,91,0.00,,---,0.18,VWS V14.01,2013-05-16 15:08:00,
2013-05-16 10:13:00,67.1,64.4,29.79,SE,140,0.0,6.0,91,0.00,,---,0.18,VWS V14.01,2013-05-16 15:13:00,
2013-05-16 10:18:00,67.5,64.8,29.79,SSE,147,0.0,6.0,91,0.00,,---,0.18,VWS V14.01,2013-05-16 15:18:00,
2013-05-16 10:23:00,67.9,64.9,29.79,SSE,167,0.0,3.0,90,0.00,,---,0.18,VWS V14.01,2013-05-16 15:23:00,
2013-05-16 10:28:00,68.3,65.3,29.79,SW,219,3.0,6.0,90,0.00,,---,0.18,VWS V14.01,2013-05-16 15:28:00,
2013-05-16 10:33:00,68.6,65.2,29.79,South,180,0.0,7.0,89,0.00,,---,0.18,VWS V14.01,2013-05-16 15:33:00,
2013-05-16 10:38:00,68.7,65.0,29.80,SSE,166,1.0,4.0,88,0.00,,---,0.18,VWS V14.01,2013-05-16 15:38:00,
2013-05-16 10:43:00,68.8,65.4,29.80,SE,142,0.0,4.0,89,0.00,,---,0.18,VWS V14.01,2013-05-16 15:43:00,
2013-05-16 10:48:00,68.6,64.9,29.80,SSE,162,0.0,5.0,88,0.00,,---,0.18,VWS V14.01,2013-05-16 15:48:00,
2013-05-16 10:53:00,68.6,64.9,29.80,SE,146,0.0,5.0,88,0.00,,---,0.18,VWS V14.01,2013-05-16 15:53:00,
2013-05-16 10:58:00,68.6,65.2,29.80,SE,144,0.0,1.0,89,0.00,,---,0.18,VWS V14.01,2013-05-16 15:58:00,
2013-05-16 11:03:00,68.5,65.1,29.80,SE,144,0.0,0.0,89,0.00,,---,0.18,VWS V14.01,2013-05-16 16:03:00,
2013-05-16 11:08:00,68.5,65.1,29.80,SE,144,0.0,0.0,89,0.00,,---,0.18,VWS V14.01,2013-05-16 16:08:00,
2013-05-16 11:13:00,68.6,65.2,29.80,SSW,205,2.0,2.0,89,0.00,,---,0.18,VWS V14.01,2013-05-16 16:13:00,
2013-05-16 11:19:00,68.8,65.4,29.80,SSW,196,0.0,5.0,89,0.00,,---,0.18,VWS V14.01,2013-05-16 16:19:00,
2013-05-16 11:24:00,69.0,65.6,29.80,SSE,155,0.0,3.0,89,0.00,,---,0.18,VWS V14.01,2013-05-16 16:24:00,
2013-05-16 11:29:00,69.1,65.7,29.80,SSE,147,0.0,1.0,89,0.00,,---,0.18,VWS V14.01,2013-05-16 16:29:00,
2013-05-16 11:34:00,69.2,65.8,29.81,SE,146,0.0,0.0,89,0.00,,---,0.18,VWS V14.01,2013-05-16 16:34:00,
2013-05-16 11:39:00,69.3,65.9,29.81,SE,146,3.0,4.0,89,0.00,,---,0.18,VWS V14.01,2013-05-16 16:39:00,
2013-05-16 11:44:00,69.4,66.0,29.81,South,185,0.0,4.0,89,0.00,,---,0.18,VWS V14.01,2013-05-16 16:44:00,
2013-05-16 11:49:00,69.4,66.0,29.81,SSE,165,0.0,0.0,89,0.00,,---,0.18,VWS V14.01,2013-05-16 16:49:00,
2013-05-16 11:54:00,69.4,66.0,29.81,SSE,164,0.0,0.0,89,0.00,,---,0.18,VWS V14.01,2013-05-16 16:54:00,
2013-05-16 11:59:00,69.5,66.1,29.81,SSE,164,0.0,0.0,89,0.00,,---,0.18,VWS V14.01,2013-05-16 16:59:00,
2013-05-16 12:04:00,69.6,66.5,29.80,SE,134,4.0,4.0,90,0.00,,---,0.18,VWS V14.01,2013-05-16 17:04:00,
2013-05-16 12:09:00,69.7,66.6,29.80,SE,126,1.0,6.0,90,0.00,,---,0.18,VWS V14.01,2013-05-16 17:09:00,
2013-05-16 12:14:00,69.7,66.6,29.80,SSE,148,0.0,2.0,90,0.00,,---,0.18,VWS V14.01,2013-05-16 17:14:00,
2013-05-16 12:20:00,69.9,66.8,29.80,SSE,148,0.0,1.0,90,0.00,,---,0.18,VWS V14.01,2013-05-16 17:20:00,
2013-05-16 12:25:00,70.0,66.9,29.80,SE,145,1.0,5.0,90,0.00,,---,0.18,VWS V14.01,2013-05-16 17:25:00,
2013-05-16 12:30:00,70.1,66.7,29.80,SE,130,5.0,5.0,89,0.00,,---,0.18,VWS V14.01,2013-05-16 17:30:00,
2013-05-16 12:35:00,70.3,66.9,29.80,SE,137,5.0,6.0,89,0.00,,---,0.18,VWS V14.01,2013-05-16 17:35:00,
2013-05-16 12:40:00,70.5,67.1,29.79,SE,135,0.0,6.0,89,0.00,,---,0.18,VWS V14.01,2013-05-16 17:40:00,
2013-05-16 12:45:00,70.8,67.4,29.79,South,170,3.0,8.0,89,0.00,,---,0.18,VWS V14.01,2013-05-16 17:45:00,
2013-05-16 12:50:00,71.1,67.7,29.79,SE,140,5.0,5.0,89,0.00,,---,0.18,VWS V14.01,2013-05-16 17:50:00,
2013-05-16 12:55:00,71.7,68.3,29.78,SE,141,5.0,7.0,89,0.00,,---,0.18,VWS V14.01,2013-05-16 17:55:00,
2013-05-16 13:00:00,72.8,69.4,29.78,SE,140,4.0,7.0,89,0.00,,---,0.18,VWS V14.01,2013-05-16 18:00:00,
2013-05-16 13:05:00,73.8,69.3,29.78,SSE,150,11.0,12.0,86,0.00,,---,0.18,VWS V14.01,2013-05-16 18:05:00,
2013-05-16 13:10:00,74.1,69.7,29.77,SSE,167,4.0,10.0,86,0.00,,---,0.18,VWS V14.01,2013-05-16 18:10:00,
2013-05-16 13:15:00,74.5,69.0,29.77,South,184,6.0,18.0,83,0.00,,---,0.18,VWS V14.01,2013-05-16 18:15:00,
2013-05-16 13:20:00,74.6,68.8,29.77,SE,132,4.0,15.0,82,0.00,,---,0.18,VWS V14.01,2013-05-16 18:20:00,
2013-05-16 13:26:00,75.0,69.5,29.77,SSE,161,9.0,13.0,83,0.00,,---,0.18,VWS V14.01,2013-05-16 18:26:00,
2013-05-16 13:31:00,75.2,69.3,29.77,SSW,200,8.0,14.0,82,0.00,,---,0.18,VWS V14.01,2013-05-16 18:31:00,
2013-05-16 13:36:00,75.1,68.9,29.77,SSE,154,7.0,13.0,81,0.00,,---,0.18,VWS V14.01,2013-05-16 18:36:00,
2013-05-16 13:41:00,75.4,69.2,29.76,SSW,207,11.0,18.0,81,0.00,,---,0.18,VWS V14.01,2013-05-16 18:41:00,
2013-05-16 13:46:00,75.6,69.4,29.76,SE,141,13.0,14.0,81,0.00,,---,0.18,VWS V14.01,2013-05-16 18:46:00,
2013-05-16 13:51:00,76.0,69.4,29.76,SE,133,6.0,18.0,80,0.00,,---,0.18,VWS V14.01,2013-05-16 18:51:00,
2013-05-16 13:56:00,76.0,69.4,29.77,South,186,11.0,13.0,80,0.00,,---,0.18,VWS V14.01,2013-05-16 18:56:00,
2013-05-16 14:01:00,76.2,69.2,29.76,South,182,5.0,13.0,79,0.00,,---,0.18,VWS V14.01,2013-05-16 19:01:00,
2013-05-16 14:06:00,76.4,69.0,29.76,SSE,147,7.0,15.0,78,0.00,,---,0.18,VWS V14.01,2013-05-16 19:06:00,
2013-05-16 14:11:00,76.5,69.5,29.76,SSW,197,5.0,14.0,79,0.00,,---,0.18,VWS V14.01,2013-05-16 19:11:00,
2013-05-16 14:16:00,76.5,69.5,29.76,SSW,196,7.0,19.0,79,0.00,,---,0.18,VWS V14.01,2013-05-16 19:16:00,
2013-05-16 14:21:00,76.9,69.5,29.76,South,175,1.0,17.0,78,0.00,,---,0.18,VWS V14.01,2013-05-16 19:21:00,
2013-05-16 14:26:00,77.4,70.0,29.76,SE,138,9.0,17.0,78,0.00,,---,0.18,VWS V14.01,2013-05-16 19:26:00,
2013-05-16 14:31:00,78.1,70.7,29.76,SSE,168,12.0,12.0,78,0.00,,---,0.18,VWS V14.01,2013-05-16 19:31:00,
2013-05-16 14:37:00,78.0,69.8,29.76,SW,219,10.0,13.0,76,0.00,,---,0.18,VWS V14.01,2013-05-16 19:37:00,
2013-05-16 14:42:00,77.5,69.3,29.76,SSW,207,7.0,17.0,76,0.00,,---,0.18,VWS V14.01,2013-05-16 19:42:00,
2013-05-16 14:47:00,77.5,69.3,29.76,SSE,165,2.0,15.0,76,0.00,,---,0.18,VWS V14.01,2013-05-16 19:47:00,
2013-05-16 14:52:00,77.3,69.5,29.76,SSE,163,14.0,14.0,77,0.00,,---,0.18,VWS V14.01,2013-05-16 19:52:00,
2013-05-16 14:57:00,77.3,69.5,29.75,SSW,194,5.0,15.0,77,0.00,,---,0.18,VWS V14.01,2013-05-16 19:57:00,
2013-05-16 15:02:00,77.7,69.9,29.75,SSE,153,4.0,12.0,77,0.00,,---,0.18,VWS V14.01,2013-05-16 20:02:00,
2013-05-16 15:07:00,78.5,70.3,29.75,SSW,201,9.0,13.0,76,0.00,,---,0.18,VWS V14.01,2013-05-16 20:07:00,
2013-05-16 15:12:00,78.2,70.0,29.75,WSW,256,11.0,11.0,76,0.00,,---,0.18,VWS V14.01,2013-05-16 20:12:00,
2013-05-16 15:17:00,78.0,69.8,29.75,South,174,6.0,13.0,76,0.00,,---,0.18,VWS V14.01,2013-05-16 20:17:00,
2013-05-16 15:22:00,78.0,69.8,29.75,South,179,2.0,15.0,76,0.00,,---,0.18,VWS V14.01,2013-05-16 20:22:00,
2013-05-16 15:27:00,78.1,70.7,29.75,SSE,152,7.0,8.0,78,0.00,,---,0.18,VWS V14.01,2013-05-16 20:27:00,
2013-05-16 15:32:00,78.2,70.4,29.75,SE,146,10.0,10.0,77,0.00,,---,0.18,VWS V14.01,2013-05-16 20:32:00,
2013-05-16 15:37:00,78.0,70.2,29.75,South,171,7.0,13.0,77,0.00,,---,0.18,VWS V14.01,2013-05-16 20:37:00,
2013-05-16 15:43:00,78.1,70.3,29.75,SE,144,4.0,9.0,77,0.00,,---,0.18,VWS V14.01,2013-05-16 20:43:00,
2013-05-16 15:48:00,77.8,70.4,29.75,SSE,151,3.0,7.0,78,0.00,,---,0.18,VWS V14.01,2013-05-16 20:48:00,
2013-05-16 15:53:00,77.4,70.0,29.75,ESE,120,5.0,7.0,78,0.00,,---,0.18,VWS V14.01,2013-05-16 20:53:00,
2013-05-16 15:58:00,77.0,70.0,29.75,SSE,152,7.0,10.0,79,0.00,,---,0.18,VWS V14.01,2013-05-16 20:58:00,
2013-05-16 16:03:00,76.8,69.8,29.75,South,190,0.0,8.0,79,0.00,,---,0.18,VWS V14.01,2013-05-16 21:03:00,
2013-05-16 16:08:00,76.8,69.8,29.74,SSE,163,3.0,6.0,79,0.00,,---,0.18,VWS V14.01,2013-05-16 21:08:00,
2013-05-16 16:13:00,76.7,69.7,29.74,SSE,157,4.0,10.0,79,0.00,,---,0.18,VWS V14.01,2013-05-16 21:13:00,
2013-05-16 16:18:00,76.7,70.1,29.74,SSE,157,5.0,5.0,80,0.00,,---,0.18,VWS V14.01,2013-05-16 21:18:00,
2013-05-16 16:23:00,76.9,69.9,29.74,South,178,4.0,7.0,79,0.00,,---,0.18,VWS V14.01,2013-05-16 21:23:00,
2013-05-16 16:28:00,77.1,70.1,29.74,South,179,2.0,7.0,79,0.00,,---,0.18,VWS V14.01,2013-05-16 21:28:00,
2013-05-16 16:33:00,77.3,70.7,29.74,SE,144,8.0,9.0,80,0.00,,---,0.18,VWS V14.01,2013-05-16 21:33:00,
2013-05-16 16:38:00,77.6,70.6,29.74,SSE,159,3.0,8.0,79,0.00,,---,0.18,VWS V14.01,2013-05-16 21:38:00,
2013-05-16 16:43:00,77.7,70.3,29.74,South,171,5.0,7.0,78,0.00,,---,0.18,VWS V14.01,2013-05-16 21:43:00,
2013-05-16 16:49:00,78.0,70.6,29.73,SSE,163,1.0,7.0,78,0.00,,---,0.18,VWS V14.01,2013-05-16 21:49:00,
2013-05-16 16:54:00,78.1,70.3,29.73,SSE,154,3.0,10.0,77,0.00,,---,0.18,VWS V14.01,2013-05-16 21:54:00,
2013-05-16 16:59:00,78.1,70.7,29.73,SE,136,4.0,9.0,78,0.00,,---,0.18,VWS V14.01,2013-05-16 21:59:00,
2013-05-16 17:04:00,78.3,70.9,29.73,SSE,155,7.0,7.0,78,0.00,,---,0.18,VWS V14.01,2013-05-16 22:04:00,
2013-05-16 17:09:00,78.8,71.4,29.73,South,182,2.0,10.0,78,0.00,,---,0.18,VWS V14.01,2013-05-16 22:09:00,
2013-05-16 17:14:00,79.0,71.6,29.73,SE,139,7.0,10.0,78,0.00,,---,0.18,VWS V14.01,2013-05-16 22:14:00,
2013-05-16 17:19:00,79.1,71.3,29.72,SE,136,5.0,12.0,77,0.00,,---,0.18,VWS V14.01,2013-05-16 22:19:00,
2013-05-16 17:24:00,79.1,71.3,29.72,SSE,159,5.0,10.0,77,0.00,,---,0.18,VWS V14.01,2013-05-16 22:24:00,
2013-05-16 17:29:00,79.3,71.5,29.72,South,184,1.0,9.0,77,0.00,,---,0.18,VWS V14.01,2013-05-16 22:29:00,
2013-05-16 17:34:00,79.6,71.4,29.72,SSW,194,2.0,9.0,76,0.00,,---,0.18,VWS V14.01,2013-05-16 22:34:00,
2013-05-16 17:39:00,79.6,71.4,29.72,South,173,7.0,9.0,76,0.00,,---,0.18,VWS V14.01,2013-05-16 22:39:00,
2013-05-16 17:44:00,79.8,70.8,29.72,SE,126,5.0,11.0,74,0.00,,---,0.18,VWS V14.01,2013-05-16 22:44:00,
2013-05-16 17:49:00,79.6,71.4,29.71,South,170,7.0,9.0,76,0.00,,---,0.18,VWS V14.01,2013-05-16 22:49:00,
2013-05-16 17:55:00,79.6,71.0,29.71,SSE,164,1.0,12.0,75,0.00,,---,0.18,VWS V14.01,2013-05-16 22:55:00,
2013-05-16 18:00:00,79.6,71.4,29.71,SSE,161,5.0,10.0,76,0.00,,---,0.18,VWS V14.01,2013-05-16 23:00:00,
2013-05-16 18:05:00,79.6,71.4,29.71,SE,128,7.0,8.0,76,0.00,,---,0.18,VWS V14.01,2013-05-16 23:05:00,
2013-05-16 18:10:00,79.5,71.3,29.71,South,171,3.0,6.0,76,0.00,,---,0.18,VWS V14.01,2013-05-16 23:10:00,
2013-05-16 18:15:00,79.4,71.6,29.72,SE,145,1.0,11.0,77,0.00,,---,0.18,VWS V14.01,2013-05-16 23:15:00,
2013-05-16 18:20:00,79.3,71.5,29.72,SSE,148,5.0,8.0,77,0.00,,---,0.18,VWS V14.01,2013-05-16 23:20:00,
2013-05-16 18:25:00,79.3,71.5,29.71,SE,141,5.0,9.0,77,0.00,,---,0.18,VWS V14.01,2013-05-16 23:25:00,
2013-05-16 18:30:00,79.1,70.9,29.71,SE,141,4.0,11.0,76,0.00,,---,0.18,VWS V14.01,2013-05-16 23:30:00,
2013-05-16 18:35:00,79.1,71.7,29.71,ESE,117,9.0,9.0,78,0.00,,---,0.18,VWS V14.01,2013-05-16 23:35:00,
2013-05-16 18:40:00,79.0,71.2,29.71,South,170,4.0,7.0,77,0.00,,---,0.18,VWS V14.01,2013-05-16 23:40:00,
2013-05-16 18:45:00,79.1,71.3,29.71,SSE,152,4.0,5.0,77,0.00,,---,0.18,VWS V14.01,2013-05-16 23:45:00,
2013-05-16 18:50:00,79.0,71.2,29.71,South,169,1.0,6.0,77,0.00,,---,0.18,VWS V14.01,2013-05-16 23:50:00,
2013-05-16 18:56:00,78.9,70.7,29.71,SE,140,6.0,10.0,76,0.00,,---,0.18,VWS V14.01,2013-05-16 23:56:00,
2013-05-16 19:01:00,78.8,71.0,29.71,SSE,149,1.0,9.0,77,0.00,,---,0.18,VWS V14.01,2013-05-17 00:01:00,
2013-05-16 19:06:00,78.8,71.0,29.71,South,182,7.0,7.0,77,0.00,,---,0.18,VWS V14.01,2013-05-17 00:06:00,
2013-05-16 19:11:00,78.8,71.4,29.71,SSE,153,4.0,5.0,78,0.00,,---,0.18,VWS V14.01,2013-05-17 00:11:00,
2013-05-16 19:16:00,78.8,71.0,29.71,SSW,198,3.0,9.0,77,0.00,,---,0.18,VWS V14.01,2013-05-17 00:16:00,
2013-05-16 19:21:00,78.7,70.9,29.71,SSE,163,4.0,7.0,77,0.00,,---,0.18,VWS V14.01,2013-05-17 00:21:00,
2013-05-16 19:26:00,78.5,70.7,29.71,SSE,153,4.0,4.0,77,0.00,,---,0.18,VWS V14.01,2013-05-17 00:26:00,
2013-05-16 19:31:00,78.3,70.9,29.71,SE,140,0.0,3.0,78,0.00,,---,0.18,VWS V14.01,2013-05-17 00:31:00,
2013-05-16 19:36:00,78.2,70.8,29.71,South,180,0.0,3.0,78,0.00,,---,0.18,VWS V14.01,2013-05-17 00:36:00,
2013-05-16 19:41:00,78.1,71.1,29.71,SSE,156,0.0,3.0,79,0.00,,---,0.18,VWS V14.01,2013-05-17 00:41:00,
2013-05-16 19:46:00,77.9,70.9,29.71,SSE,158,0.0,4.0,79,0.00,,---,0.18,VWS V14.01,2013-05-17 00:46:00,
2013-05-16 19:51:00,77.6,70.9,29.72,SSE,153,2.0,4.0,80,0.00,,---,0.18,VWS V14.01,2013-05-17 00:51:00,
2013-05-16 19:56:00,77.4,70.8,29.72,SSE,153,0.0,1.0,80,0.00,,---,0.18,VWS V14.01,2013-05-17 00:56:00,
2013-05-16 20:01:00,77.2,70.6,29.72,SSE,168,0.0,2.0,80,0.00,,---,0.18,VWS V14.01,2013-05-17 01:01:00,
2013-05-16 20:07:00,77.0,70.7,29.72,SSE,161,0.0,5.0,81,0.00,,---,0.18,VWS V14.01,2013-05-17 01:07:00,
2013-05-16 20:12:00,76.8,70.5,29.72,SSE,161,0.0,2.0,81,0.00,,---,0.18,VWS V14.01,2013-05-17 01:12:00,
2013-05-16 20:17:00,76.5,70.6,29.72,SSE,161,2.0,3.0,82,0.00,,---,0.18,VWS V14.01,2013-05-17 01:17:00,
2013-05-16 20:22:00,76.2,70.7,29.72,SSE,157,2.0,4.0,83,0.00,,---,0.18,VWS V14.01,2013-05-17 01:22:00,
2013-05-16 20:27:00,75.9,70.7,29.72,SE,136,1.0,3.0,84,0.00,,---,0.18,VWS V14.01,2013-05-17 01:27:00,
2013-05-16 20:32:00,75.7,70.9,29.73,SE,136,0.0,1.0,85,0.00,,---,0.18,VWS V14.01,2013-05-17 01:32:00,
2013-05-16 20:37:00,75.5,70.7,29.73,SE,136,1.0,2.0,85,0.00,,---,0.18,VWS V14.01,2013-05-17 01:37:00,
2013-05-16 20:42:00,75.3,70.8,29.73,SE,136,0.0,1.0,86,0.00,,---,0.18,VWS V14.01,2013-05-17 01:42:00,
2013-05-16 20:47:00,75.2,70.7,29.73,SE,136,1.0,2.0,86,0.00,,---,0.18,VWS V14.01,2013-05-17 01:47:00,
2013-05-16 20:52:00,75.0,70.9,29.73,SE,136,3.0,3.0,87,0.00,,---,0.18,VWS V14.01,2013-05-17 01:52:00,
2013-05-16 20:57:00,74.9,70.8,29.73,SE,136,3.0,3.0,87,0.00,,---,0.18,VWS V14.01,2013-05-17 01:57:00,
2013-05-16 21:02:00,74.9,70.8,29.73,SE,136,0.0,3.0,87,0.00,,---,0.18,VWS V14.01,2013-05-17 02:02:00,
2013-05-16 21:08:00,74.9,70.8,29.74,SE,136,1.0,3.0,87,0.00,,---,0.18,VWS V14.01,2013-05-17 02:08:00,
2013-05-16 21:13:00,74.8,70.7,29.74,SE,136,0.0,1.0,87,0.00,,---,0.18,VWS V14.01,2013-05-17 02:13:00,
2013-05-16 21:18:00,74.7,70.6,29.74,SE,136,0.0,3.0,87,0.00,,---,0.18,VWS V14.01,2013-05-17 02:18:00,
2013-05-16 21:23:00,74.7,70.6,29.74,SE,136,1.0,3.0,87,0.00,,---,0.18,VWS V14.01,2013-05-17 02:23:00,
2013-05-16 21:28:00,74.5,70.4,29.74,SE,136,2.0,2.0,87,0.00,,---,0.18,VWS V14.01,2013-05-17 02:28:00,
2013-05-16 21:33:00,74.2,70.4,29.74,SE,136,0.0,1.0,88,0.00,,---,0.18,VWS V14.01,2013-05-17 02:33:00,
2013-05-16 21:38:00,73.9,70.1,29.75,SE,136,0.0,2.0,88,0.00,,---,0.18,VWS V14.01,2013-05-17 02:38:00,
2013-05-16 21:43:00,73.7,69.9,29.75,SE,136,0.0,0.0,88,0.00,,---,0.18,VWS V14.01,2013-05-17 02:43:00,
2013-05-16 21:48:00,73.5,70.1,29.75,SE,136,0.0,1.0,89,0.00,,---,0.18,VWS V14.01,2013-05-17 02:48:00,
2013-05-16 21:53:00,73.3,69.9,29.75,SE,136,0.0,1.0,89,0.00,,---,0.18,VWS V14.01,2013-05-17 02:53:00,
2013-05-16 21:58:00,73.2,69.8,29.75,SE,136,0.0,1.0,89,0.00,,---,0.18,VWS V14.01,2013-05-17 02:58:00,
2013-05-16 22:03:00,73.1,70.0,29.75,SE,136,0.0,1.0,90,0.00,,---,0.18,VWS V14.01,2013-05-17 03:03:00,
2013-05-16 22:08:00,72.9,69.8,29.75,SE,136,0.0,1.0,90,0.00,,---,0.18,VWS V14.01,2013-05-17 03:08:00,
2013-05-16 22:13:00,72.7,69.6,29.76,SE,136,0.0,1.0,90,0.00,,---,0.18,VWS V14.01,2013-05-17 03:13:00,
2013-05-16 22:19:00,72.6,69.5,29.76,SE,136,0.0,1.0,90,0.00,,---,0.18,VWS V14.01,2013-05-17 03:19:00,
2013-05-16 22:24:00,72.4,69.6,29.76,SE,136,0.0,1.0,91,0.00,,---,0.18,VWS V14.01,2013-05-17 03:24:00,
2013-05-16 22:29:00,72.4,69.6,29.77,SE,136,0.0,0.0,91,0.00,,---,0.18,VWS V14.01,2013-05-17 03:29:00,
2013-05-16 22:34:00,72.3,69.5,29.77,SE,136,0.0,1.0,91,0.00,,---,0.18,VWS V14.01,2013-05-17 03:34:00,
2013-05-16 22:39:00,72.3,69.5,29.77,SE,136,0.0,1.0,91,0.00,,---,0.18,VWS V14.01,2013-05-17 03:39:00,
2013-05-16 22:44:00,72.3,69.5,29.77,SE,136,0.0,0.0,91,0.00,,---,0.18,VWS V14.01,2013-05-17 03:44:00,
2013-05-16 22:49:00,72.2,69.4,29.77,SE,136,0.0,0.0,91,0.00,,---,0.18,VWS V14.01,2013-05-17 03:49:00,
2013-05-16 22:54:00,72.2,69.4,29.77,SE,136,0.0,0.0,91,0.00,,---,0.18,VWS V14.01,2013-05-17 03:54:00,
2013-05-16 22:59:00,72.1,69.3,29.77,SE,136,0.0,0.0,91,0.00,,---,0.18,VWS V14.01,2013-05-17 03:59:00,
2013-05-16 23:01:00,72.0,69.2,29.77,SE,136,0.0,0.0,91,0.00,,---,0.18,VWS V14.01,2013-05-17 04:01:00,
2013-05-16 23:02:00,72.0,69.2,29.77,SE,136,0.0,0.0,91,0.00,,---,0.18,VWS V14.01,2013-05-17 04:02:00,
2013-05-16 23:07:00,71.8,69.3,29.77,SE,136,0.0,0.0,92,0.00,,---,0.18,VWS V14.01,2013-05-17 04:07:00,
2013-05-16 23:12:00,71.6,69.2,29.77,SE,136,0.0,0.0,92,0.00,,---,0.18,VWS V14.01,2013-05-17 04:12:00,
2013-05-16 23:17:00,71.5,69.1,29.77,SE,136,0.0,0.0,92,0.00,,---,0.18,VWS V14.01,2013-05-17 04:17:00,
2013-05-16 23:22:00,71.4,69.3,29.77,SE,136,0.0,0.0,93,0.00,,---,0.18,VWS V14.01,2013-05-17 04:22:00,
2013-05-16 23:27:00,71.3,69.2,29.76,SE,136,0.0,0.0,93,0.00,,---,0.18,VWS V14.01,2013-05-17 04:27:00,
2013-05-16 23:32:00,71.3,69.2,29.77,SE,136,0.0,0.0,93,0.00,,---,0.18,VWS V14.01,2013-05-17 04:32:00,
2013-05-16 23:37:00,71.3,69.5,29.77,SE,136,0.0,0.0,94,0.00,,---,0.18,VWS V14.01,2013-05-17 04:37:00,
2013-05-16 23:43:00,71.3,69.5,29.77,SE,136,0.0,0.0,94,0.00,,---,0.18,VWS V14.01,2013-05-17 04:43:00,
2013-05-16 23:48:00,71.3,69.5,29.77,SE,136,0.0,0.0,94,0.00,,---,0.18,VWS V14.01,2013-05-17 04:48:00,
2013-05-16 23:53:00,71.3,69.5,29.77,SE,136,0.0,0.0,94,0.00,,---,0.18,VWS V14.01,2013-05-17 04:53:00,
2013-05-16 23:58:00,71.3,69.5,29.77,SE,136,0.0,1.0,94,0.00,,---,0.18,VWS V14.01,2013-05-17 04:58:00,